Stations météo

réclame
Mon MeteoGroup
Thorney Island, Grande-Bretagne (3872): Température de l'air & dewpoint: 16.10.2017 09:00:00 - 22.10.2017 09:00:00 (BST)Thorney Island, Grande-Bretagne (3872): Température de l'air -20cm & Température de l'air -100cm: 16.10.2017 09:00:00 - 22.10.2017 09:00:00 (BST)Thorney Island, Grande-Bretagne (3872): Vitesse du vent & gusts: 16.10.2017 09:00:00 - 22.10.2017 09:00:00 (BST)Thorney Island, Grande-Bretagne (3872): Direction du vent: 16.10.2017 09:00:00 - 22.10.2017 09:00:00 (BST)Thorney Island, Grande-Bretagne (3872): reduced air pressure: 16.10.2017 09:00:00 - 22.10.2017 09:00:00 (BST)Thorney Island, Grande-Bretagne (3872): visibility: 16.10.2017 09:00:00 - 22.10.2017 09:00:00 (BST)Thorney Island, Grande-Bretagne (3872): Quantités de précipitations: 16.10.2017 09:00:00 - 22.10.2017 09:00:00 (BST)
Date & Time tt [°C] td [°C] tt -20cm [°C] tt -100cm [°C] ff [km/h] ff [knt] fx [km/h] fx [knt] dd ppp [hPa] vv [km] rr [mm]
22.10.2017 09:00:00 - - - - - - - - - - - -
22.10.2017 08:00:00 9,2 6,0 - - 28 15 46 25 W 1013,1 25 0,0
22.10.2017 07:00:00 9,6 6,4 - - 31 17 50 27 W 1012,5 27 0,0
22.10.2017 06:00:00 10,0 6,5 - - 34 18 50 27 W 1011,8 22 0,0
22.10.2017 05:00:00 10,5 7,1 - - 34 18 52 28 W 1010,8 20 0,0
22.10.2017 04:00:00 10,7 7,6 - - 34 18 50 27 W 1009,9 23 -
22.10.2017 03:00:00 11,1 8,4 - - 31 17 50 27 W 1009,2 35 0,0
22.10.2017 02:00:00 11,5 8,7 - - 35 19 57 31 W 1008,6 11 0,0
22.10.2017 01:00:00 12,1 8,6 - - 35 19 63 34 W 1007,6 30 0,0
22.10.2017 00:00:00 12,3 8,8 - - 42 23 61 33 W 1007,0 19 0,0
21.10.2017 23:00:00 12,4 9,0 - - 39 21 57 31 W 1006,3 23 0,0
21.10.2017 22:00:00 12,4 9,6 - - 41 22 65 35 W 1005,4 21 0,0
21.10.2017 21:00:00 12,7 10,5 - - 48 26 68 37 WSW 1004,3 17 1,0
21.10.2017 20:00:00 12,4 10,0 - - 46 25 70 38 WSW 1004,1 9 0,2
21.10.2017 19:00:00 12,2 9,8 - - 50 27 78 42 WSW 1004,4 13 0,2
21.10.2017 18:00:00 12,9 9,3 - - 44 24 76 41 WSW 1004,2 10 0,0
21.10.2017 17:00:00 13,7 8,9 - - 54 29 80 43 SW 1003,8 11 -
21.10.2017 16:00:00 13,1 10,3 - - 54 29 83 45 SW 1004,1 9 0,2
21.10.2017 15:00:00 14,7 9,1 - - 55 30 83 45 SW 1003,9 10 0,0
21.10.2017 14:00:00 14,6 9,5 - - 57 31 87 47 SW 1003,9 14 0,0
21.10.2017 13:00:00 14,9 10,5 - - 54 29 76 41 SW 1003,8 10 0,6
21.10.2017 12:00:00 14,9 10,7 - - 46 25 65 35 SW 1004,1 11 0,4
21.10.2017 11:00:00 14,6 9,7 - - 42 23 78 42 SW 1004,3 12 0,2
21.10.2017 10:00:00 14,7 10,8 14,9 14,7 42 23 78 42 SW 1004,0 9 0,0
21.10.2017 09:00:00 13,2 10,5 - - 42 23 65 35 SW 1003,9 10 0,8
21.10.2017 08:00:00 13,7 9,9 - - 37 20 63 34 SW 1003,7 11 0,2
21.10.2017 07:00:00 13,8 10,8 - - 37 20 61 33 SW 1003,3 10 -
21.10.2017 06:00:00 14,2 11,4 - - 34 18 57 31 SW 1003,8 3,9 -
21.10.2017 05:00:00 13,7 12,2 - - 29 16 59 32 SW 1003,2 14 -
21.10.2017 04:00:00 14,5 13,1 - - 37 20 61 33 SSW 1003,1 3,1 -
21.10.2017 03:00:00 14,2 12,7 - - 34 18 - - SW 1003,5 15 -
21.10.2017 02:00:00 14,3 13,2 - - 35 19 57 31 SW 1003,2 6 -
21.10.2017 01:00:00 15,1 14,2 - - 42 23 61 33 S 1003,5 7 -
21.10.2017 00:00:00 14,8 13,8 - - 44 24 61 33 S 1004,4 3,4 -
20.10.2017 23:00:00 15,0 12,6 - - 41 22 54 29 S 1005,5 11 -
20.10.2017 22:00:00 15,2 11,7 - - 31 17 52 28 S 1006,7 14 -
20.10.2017 21:00:00 15,0 11,5 - - 29 16 46 25 S 1007,7 17 0,0
20.10.2017 20:00:00 14,6 11,0 - - 34 18 - - S 1008,5 19 0,0
20.10.2017 19:00:00 14,1 10,0 - - 29 16 - - SSW 1009,1 20 0,0
20.10.2017 18:00:00 14,1 9,6 - - 26 14 - - SW 1009,3 21 0,0
20.10.2017 17:00:00 14,1 9,8 - - 26 14 - - SW 1009,5 24 0,0
20.10.2017 16:00:00 14,3 8,8 - - 26 14 52 28 WSW 1009,8 22 0,0
20.10.2017 15:00:00 14,1 7,9 - - 35 19 55 30 WSW 1009,8 28 0,0
20.10.2017 14:00:00 13,9 7,1 - - 37 20 52 28 WSW 1009,6 21 0,0
20.10.2017 13:00:00 14,2 7,7 - - 39 21 52 28 WSW 1009,3 30 0,0
20.10.2017 12:00:00 14,1 7,8 - - 34 18 59 32 W 1008,8 27 0,0
20.10.2017 11:00:00 13,0 8,4 - - 41 22 65 35 WSW 1008,1 30 0,0
20.10.2017 10:00:00 12,9 9,0 15,0 14,7 41 22 57 31 W 1006,9 30 0,0
20.10.2017 09:00:00 12,2 9,6 - - 41 22 59 32 WSW 1005,4 35 0,0
20.10.2017 08:00:00 12,6 9,5 - - 42 23 63 34 W 1003,6 35 0,0
20.10.2017 07:00:00 13,0 10,0 - - 48 26 72 39 WSW 1002,1 40 0,0
20.10.2017 06:00:00 13,4 10,4 - - 48 26 67 36 WSW 1000,9 40 0,0
20.10.2017 05:00:00 13,4 11,1 - - 44 24 70 38 WSW 999,6 18 0,2
20.10.2017 04:00:00 13,8 11,5 - - 44 24 67 36 SW 999,0 14 0,4
20.10.2017 03:00:00 13,2 11,5 - - 44 24 65 35 SW 999,0 9 0,4
20.10.2017 02:00:00 13,3 10,9 - - 37 20 61 33 SW 999,2 13 0,0
20.10.2017 01:00:00 13,2 11,1 - - 37 20 54 29 SW 999,5 14 0,2
20.10.2017 00:00:00 14,0 10,9 - - 37 20 50 27 SSW 999,3 18 0,0
19.10.2017 23:00:00 14,4 13,2 - - 39 21 68 37 SSW 999,2 14 0,0
19.10.2017 22:00:00 14,2 13,7 - - 48 26 67 36 S 999,1 6 1,4
19.10.2017 21:00:00 13,8 13,2 - - 46 25 67 36 S 1000,0 3,5 3,6
19.10.2017 20:00:00 14,7 13,8 - - 29 16 68 37 SSE 999,9 6 2,6
19.10.2017 19:00:00 15,9 14,1 - - 24 13 - - S 1001,0 13 0,0
19.10.2017 18:00:00 15,8 14,3 - - 21 11 - - S 1001,3 13 0,0
19.10.2017 17:00:00 15,7 14,4 - - 16 9 - - S 1001,6 13 0,0
19.10.2017 16:00:00 15,9 14,6 - - 22 12 - - SSW 1002,1 14 0,0
19.10.2017 15:00:00 15,7 14,4 - - 22 12 - - SW 1002,1 19 0,0
19.10.2017 14:00:00 16,0 15,0 - - 26 14 - - S 1002,1 9 0,0
19.10.2017 13:00:00 16,3 15,2 - - 16 9 - - SSE 1002,8 9 0,0
19.10.2017 12:00:00 16,3 15,0 - - 22 12 - - SE 1003,3 11 0,0
19.10.2017 11:00:00 16,2 15,6 - - 21 11 - - ESE 1004,0 7 0,2
19.10.2017 10:00:00 15,8 15,7 15,0 14,9 9 5 - - ENE 1004,3 3,3 0,0
19.10.2017 09:00:00 15,8 15,7 - - 9 5 - - ENE 1004,8 2,7 0,0
19.10.2017 08:00:00 15,4 15,3 - - 8 4 - - ENE 1005,3 1,9 0,0
19.10.2017 07:00:00 15,2 15,1 - - 9 5 - - E 1005,6 1,4 0,0
19.10.2017 06:00:00 15,1 15,0 - - 5 3 - - E 1006,5 0,3 0,0
19.10.2017 05:00:00 14,5 14,4 - - 5 3 - - ENE 1006,8 2,3 0,0
19.10.2017 04:00:00 14,2 14,1 - - 8 4 - - ENE 1007,5 3,4 0,0
19.10.2017 03:00:00 14,3 14,2 - - 8 4 - - E 1008,5 2,9 0,0
19.10.2017 02:00:00 13,9 13,7 - - 4 2 - - ESE 1009,1 1,3 0,0
19.10.2017 01:00:00 13,8 13,4 - - 2 1 - - SSW 1009,2 0,4 0,0
19.10.2017 00:00:00 15,0 14,8 - - 9 5 - - S 1009,8 5 0,0
18.10.2017 23:00:00 15,0 14,8 - - 9 5 - - SSE 1009,8 4,6 0,0
18.10.2017 22:00:00 15,0 14,7 - - 5 3 - - SSE 1009,8 2,8 0,2
18.10.2017 21:00:00 15,5 15,2 - - 5 3 - - SE 1009,8 1,7 0,2
18.10.2017 20:00:00 15,5 15,2 - - 9 5 - - SSE 1010,3 1,5 0,0
18.10.2017 19:00:00 15,6 15,0 - - 9 5 - - S 1010,2 4,2 0,0
18.10.2017 18:00:00 15,9 15,2 - - 11 6 - - SSE 1009,9 4,6 0,0
18.10.2017 17:00:00 16,1 15,3 - - 5 3 - - S 1009,7 4,6 0,0
18.10.2017 16:00:00 16,0 15,3 - - 9 5 - - S 1009,8 5 0,0
18.10.2017 15:00:00 16,6 15,7 - - 13 7 - - SSE 1010,0 7 0,0
18.10.2017 14:00:00 16,7 15,9 - - 11 6 - - E 1010,0 5 0,0
18.10.2017 13:00:00 15,5 14,7 - - 11 6 - - ENE 1010,6 4,2 0,0
18.10.2017 12:00:00 15,4 14,6 - - 11 6 - - E 1011,0 4,2 0,0
18.10.2017 11:00:00 14,6 14,1 - - 11 6 - - ENE 1011,0 4,2 0,0
18.10.2017 10:00:00 13,0 12,4 14,7 14,9 11 6 - - NNE 1011,1 7 0,0
18.10.2017 09:00:00 12,4 11,6 - - 13 7 - - NE 1011,1 10 0,0
18.10.2017 08:00:00 12,0 11,3 - - 13 7 - - NE 1010,8 11 0,0
18.10.2017 07:00:00 11,5 10,7 - - 16 9 - - NE 1010,9 12 0,2
18.10.2017 06:00:00 11,4 10,2 - - 16 9 - - NE 1011,5 13 0,2
18.10.2017 05:00:00 11,5 10,0 - - 11 6 - - NNE 1012,2 13 0,2
18.10.2017 04:00:00 11,6 9,7 - - 16 9 - - NE 1012,2 16 0,4
18.10.2017 03:00:00 12,1 8,8 - - 13 7 - - NNE 1013,1 15 0,0
18.10.2017 02:00:00 12,0 8,4 - - 13 7 - - N 1013,8 25 0,0
18.10.2017 01:00:00 12,5 9,1 - - 13 7 - - NNE 1014,2 19 0,0
18.10.2017 00:00:00 12,5 9,0 - - 15 8 - - NE 1014,7 25 0,0
17.10.2017 23:00:00 11,9 8,4 - - 11 6 - - NNE 1015,3 24 0,0
17.10.2017 22:00:00 11,5 8,3 - - 9 5 - - NNE 1016,2 29 0,0
17.10.2017 21:00:00 11,2 8,0 - - 11 6 - - NE 1016,3 23 0,0
17.10.2017 20:00:00 11,0 8,3 - - 8 4 - - NE 1017,0 16 0,0
17.10.2017 19:00:00 11,0 8,3 - - 8 4 - - NNE 1017,2 23 0,0
17.10.2017 18:00:00 12,4 9,0 - - 8 4 - - NNE 1017,3 24 0,0
17.10.2017 17:00:00 12,9 9,0 - - 5 3 - - NNW 1018,0 19 0,0
17.10.2017 16:00:00 13,7 9,6 - - 8 4 - - NW 1018,5 25 0,0
17.10.2017 15:00:00 14,3 9,0 - - 4 2 - - NW 1019,0 20 0,0
17.10.2017 14:00:00 15,2 8,9 - - 4 2 - - W 1019,7 17 0,0
17.10.2017 13:00:00 14,2 9,7 - - 5 3 - - W 1020,9 22 0,0
17.10.2017 12:00:00 13,2 9,4 - - 4 2 - - WNW 1020,9 18 0,0
17.10.2017 11:00:00 13,6 9,3 - - 5 3 - - SW 1021,0 16 0,0
17.10.2017 10:00:00 13,2 9,9 15,0 14,9 9 5 - - W 1021,1 18 0,0
17.10.2017 09:00:00 12,7 9,7 - - 8 4 - - W 1020,7 16 0,0
17.10.2017 08:00:00 12,0 9,8 - - 9 5 - - NW 1020,4 15 0,0
17.10.2017 07:00:00 11,7 9,5 - - 5 3 - - SSW 1020,3 16 0,0
17.10.2017 06:00:00 11,7 8,7 - - 13 7 - - WSW 1019,8 18 0,0
17.10.2017 05:00:00 12,7 8,8 - - 16 9 - - WSW 1019,8 16 0,0
17.10.2017 04:00:00 13,0 8,9 - - 21 11 - - SW 1020,0 17 0,0
17.10.2017 03:00:00 13,5 8,9 - - 24 13 - - WSW 1020,2 17 0,0
17.10.2017 02:00:00 13,8 9,6 - - 24 13 - - WSW 1020,1 13 0,0
17.10.2017 01:00:00 14,3 9,8 - - 28 15 - - WSW 1020,1 13 0,0
17.10.2017 00:00:00 14,6 9,6 - - 29 16 48 26 WSW 1020,1 13 0,0
16.10.2017 23:00:00 14,5 9,8 - - 28 15 54 29 WSW 1019,8 12 0,0
16.10.2017 22:00:00 15,1 10,3 - - 39 21 61 33 SW 1019,2 10 0,0
16.10.2017 21:00:00 15,2 10,3 - - 37 20 59 32 SW 1018,8 13 0,0
16.10.2017 20:00:00 15,3 10,4 - - 39 21 54 29 SW 1018,6 13 0,0
16.10.2017 19:00:00 15,2 10,7 - - 34 18 61 33 SW 1018,1 13 -
16.10.2017 18:00:00 15,9 11,6 - - 39 21 59 32 SW 1017,3 12 0,0
16.10.2017 17:00:00 16,4 11,7 - - 37 20 52 28 SW 1017,1 14 0,0
16.10.2017 16:00:00 16,6 12,3 - - 35 19 48 26 SW 1016,8 14 0,0
16.10.2017 15:00:00 17,4 14,3 - - 28 15 - - SW 1016,6 12 0,0
16.10.2017 14:00:00 17,4 15,8 - - 18 10 - - SSW 1016,1 12 0,0
16.10.2017 13:00:00 17,7 15,6 - - 15 8 - - S 1016,1 12 0,0
16.10.2017 12:00:00 18,2 15,3 - - 24 13 - - SSE 1015,9 16 0,0
16.10.2017 11:00:00 18,2 15,6 - - 11 6 - - SSE 1015,7 14 0,0
16.10.2017 10:00:00 18,1 15,8 15,5 14,9 21 11 - - SE 1015,0 18 0,0
16.10.2017 09:00:00 17,6 16,3 - - 18 10 - - E 1014,5 15 0,0

tt = Température de l'air
td = dewpoint
tt -20cm = Température de l'air -20cm
tt -100cm = Température de l'air -100cm
ff = Vitesse du vent
fx = gusts
dd = Direction du vent
ppp = reduced air pressure
vv = visibility
rr = Quantités de précipitations

stations d'obs. à proximité